Location: White Mills Observatory
(37.5374°N, 86.0303°W)
Time: 22:10:20
(UTC-04:00)

HST - Visible Passes

Search period start: 23 July 2014 00:00
Search period end: 02 August 2014 00:00
Orbit: 548 x 552 km, 28.5° (Epoch: 22 July)

Date Brightness Start Highest point End Pass type
(mag) Time Alt. Az. Time Alt. Az. Time Alt. Az.
23 Jul 2.4 22:49:57 10° WSW 22:52:30 21° SSW 22:52:30 21° SSW visible
24 Jul 2.5 22:43:12 10° WSW 22:45:57 19° SSW 22:45:57 19° SSW visible
25 Jul 2.6 22:36:32 10° SW 22:39:19 17° SSW 22:39:21 17° SSW visible
26 Jul 2.8 22:29:59 10° SW 22:32:22 15° SSW 22:32:45 15° S visible
27 Jul 3.0 22:23:40 10° SW 22:25:24 12° SSW 22:26:08 12° S visible
